Location: Bothwell
(42.3833°S, 147.0000°E)
Time: 21:26:06
(UTC+11:00)

CUTE-I - Pass Details

Date: 28 September 2022
Orbit: 810 x 823 km, 98.7° (Epoch: 29 November)

Event Time Altitude Azimuth Distance (km) Brightness Sun altitude
Rises 19:21:31 0° 174° (S) 3,392 ? -13.0°
Reaches altitude 10° 19:24:01 10° 181° (S) 2,454 ? -13.4°
Maximum altitude 19:29:00 38° 248° (WSW) 1,244 ? -14.3°
Drops below altitude 10° 19:33:57 10° 314° (NW) 2,432 ? -15.2°
Sets 19:36:25 0° 322° (NW) 3,357 ? -15.6°
